Regional Weather Roundup
Issued by NWS

Home | Current Version | Previous Version | Graphics & Text | Print | Product List | Glossary On
Versions: 1 2 3 4 5 6 7 8 9 10 11 12 13 14 15 16 17 18 19 20 21 22 23 24 25 26 27 28 29 30 31 32 33 34 35 36 37 38 39 40 41 42 43 44 45 46 47 48 49 50
000
ASUS43 KBIS 020610
RWRND

NORTH DAKOTA REGIONAL WEATHER ROUNDUP
NATIONAL WEATHER SERVICE BISMARCK ND
100 AM CDT WED SEP 02 2015

NOTE: "FAIR" INDICATES FEW OR NO CLOUDS BELOW 12,000 FEET WITH NO
SIGNIFICANT WEATHER AND/OR OBSTRUCTIONS TO VISIBILITY.


NDZ001>003-009>011-017-020700-
NORTHWEST NORTH DAKOTA

CITY           SKY/WX    TMP DP  RH WIND       PRES   REMARKS
WILLISTON      CLEAR     60  42  51 NE3       29.79S
6HR MIN TEMP:  60; 6HR MAX TEMP:  91;

MINOT          FAIR      67  60  78 SE7       29.76F
$$

NDZ018>021-031>035-040>046-020700-
SOUTHWEST NORTH DAKOTA

CITY           SKY/WX    TMP DP  RH WIND       PRES   REMARKS
BISMARCK       CLEAR     70  66  87 E5        29.79S
6HR MIN TEMP:  70; 6HR MAX TEMP:  86;

DICKINSON      CLEAR     64  55  72 S8        29.80S
GARRISON         N/A     67  62  84 E6        29.78F
6HR MIN TEMP:  67; 6HR MAX TEMP:  85;

HETTINGER ARPT CLEAR     53  49  86 NW3       29.84S
$$

NDZ004>008-012>016-024-026-027-054-020700-
NORTHEAST NORTH DAKOTA

CITY           SKY/WX    TMP DP  RH WIND       PRES   REMARKS
GRAND FORKS    FAIR      68  58  70 SE6       29.82S
GRND FRKS AFB  FAIR      65  57  76 SE6       29.82S
DEVILS LAKE    FAIR      70  57  64 SE9       29.81F
$$

NDZ022-023-025-028>030-036>039-047>053-020700-
SOUTHEAST NORTH DAKOTA

CITY           SKY/WX    TMP DP  RH WIND       PRES   REMARKS
FARGO          FAIR      73  69  87 SE7       29.83S
6HR MIN TEMP:  73; 6HR MAX TEMP:  85;

JAMESTOWN      FAIR      67  65  93 SE6       29.82F
$$




USA.gov is the U.S. government's official web portal to all federal, state and local government web resources and services.